Regional Weather Roundup
Issued by NWS

Home | Current Version | Previous Version | Text Only | Print | Product List | Glossary Off
Versions: 1 2 3 4 5 6 7 8 9 10 11 12 13 14 15 16 17 18 19 20 21 22 23 24 25 26 27 28 29 30 31 32 33 34 35 36 37 38 39 40 41 42 43 44 45 46 47 48 49 50

000
ASUS45 KCYS 030110
RWRWY

WYOMING REGIONAL WEATHER ROUNDUP
NATIONAL WEATHER SERVICE CHEYENNE WY
700 PM MDT SAT MAY 02 2015

NOTE:  "FAIR" INDICATES FEW OR NO CLOUDS BELOW 12,000 FEET
WITH NO SIGNIFICANT WEATHER AND/OR OBSTRUCTIONS TO VISIBILITY.

WYZ001-030200-
YELLOWSTONE NATIONAL PARK

CITY           SKY/WX    TMP DP  RH WIND       PRES   REMARKS
LK YELLOWSTONE   N/A     54  19  25 W7        29.96F
W YELLOWSTONE  NOT AVBL

$$
WYZ002>013-054>058-071-098>099-030200-
NORTHERN WYOMING

CITY           SKY/WX    TMP DP  RH WIND       PRES   REMARKS
JACKSON        MOSUNNY  N/A N/A N/A S21       29.88F
CODY           FAIR      66  27  22 N13       29.78S
GREYBULL       FAIR      77  14   9 E6        29.70F
WORLAND        FAIR      73  27  18 SE3       29.71F
SHERIDAN       FAIR      72  32  23 N3        29.76R
BUFFALO        FAIR      69  29  22 N6        29.80S
GILLETTE       FAIR      65  32  29 N6        29.77S
HULETT         FAIR      72  19  14 W6        29.78S
NEWCASTLE      FAIR      73  23  15 CALM      29.77S

$$
WYZ014>020-022>026-101>103-030200-
CENTRAL WYOMING

CITY           SKY/WX    TMP DP  RH WIND       PRES   REMARKS
BIG PINEY      FAIR      55  32  41 NW8       29.99F
PINEDALE       FAIR      55  28  35 W12G20    29.98S
DUBOIS         FAIR      55  27  33 W21       29.93R
LANDER         FAIR      66  28  24 W15       29.83F
RIVERTON       FAIR      68  25  19 W21       29.82F
CASPER         FAIR      66  36  32 SW24G32   29.83R
DOUGLAS        CLOUDY    69  35  28 SW21G30   29.81R

$$
WYZ021-027>030-104>119-030200-
SOUTHERN WYOMING

CITY           SKY/WX    TMP DP  RH WIND       PRES   REMARKS
EVANSTON       FAIR      66  26  22 W20G31    29.97S
KEMMERER       FAIR      61  30  31 NW10      29.98S
FORT BRIDGER   CLOUDY    63  32  31 SW6       30.00S
ROCK SPRINGS   CLOUDY    53  40  61 SW6       29.99R
DIXON          FAIR      57  38  49 E7        30.04F
RAWLINS        FAIR      59  29  31 SW18G25   29.96F
SARATOGA       MOCLDY    55  32  41 W10       30.04F
LARAMIE        FAIR      51  36  56 MISG      30.01F
CHEYENNE       FAIR      58  37  45 SW16G30   29.95R
TORRINGTON     CLOUDY    73  34  23 SW15      29.78R
PINE BLUFFS    MOCLDY    59  43  55 SW16G24   29.92R

$$


USA.gov is the U.S. government's official web portal to all federal, state and local government web resources and services.